Location: Shepherdstown, WV
(39.4326°N, 77.8042°W)
Time: 04:40:52
(UTC-04:00)

Vanguard 1 - Pass Details

Date: 05 August 2021
Orbit: 652 x 3831 km, 34.3° (Epoch: 24 September)

Event Time Altitude Azimuth Distance (km) Brightness Sun altitude
Rises 12:35:35 0° 261° (W) 3,009 12.5 65.6°
Reaches altitude 10° 12:37:40 10° 256° (WSW) 2,188 12.0 65.8°
Maximum altitude 12:42:23 53° 179° (S) 1,079 12.2 66.1°
Drops below altitude 10° 12:49:39 10° 105° (ESE) 3,336 13.1 66.6°
Sets 12:53:33 0° 102° (ESE) 4,789 13.7 66.8°
